Location: Newark
(52.3735°N, 16.9806°E)
Time: 03:48:17
(UTC+00:00)

Envisat - Pass Details

Date: 26 September 2021
Orbit: 764 x 766 km, 98.2° (Epoch: 15 October)

Event Time Altitude Azimuth Distance (km) Brightness Sun altitude
Rises 03:17:45 0° 21° (NNE) 3,245 6.8 -13.9°
Reaches altitude 10° 03:20:20 10° 32° (NNE) 2,313 6.2 -13.6°
Maximum altitude 03:24:49 30° 94° (E) 1,344 5.1 -12.9°
Drops below altitude 10° 03:29:15 10° 155° (SSE) 2,297 5.6 -12.3°
Sets 03:31:49 0° 166° (SSE) 3,219 6.2 -11.9°
